• In Uzbekistan
  • List of Countries
  • For 7 days
  • Water Temperature
  • Satellite Maps
  • Weather Map
  • Weather Widgets
  • user-avatar
    Login

    Hourly Weather Pontypridd

    Today, 15 December, Friday

    Time Temperature Precipitation Wind Pressure Humidity
    00:00 +2°C° 0 mm 7 mps 733 mmHg 86%
    01:00 +1°C° 0.1 mm 8 mps 734 mmHg 85%
    02:00 +2°C° 0.1 mm 8 mps 734 mmHg 83%
    03:00 +2°C° 0.1 mm 9 mps 734 mmHg 82%
    04:00 +2°C° 0.2 mm 9 mps 735 mmHg 82%
    05:00 +2°C° 0.2 mm 9 mps 735 mmHg 81%
    06:00 +2°C° 0 mm 7 mps 736 mmHg 82%
    07:00 0°C° 0 mm 7 mps 737 mmHg 82%
    08:00 0°C° 0 mm 7 mps 738 mmHg 82%
    09:00 0°C° 0 mm 7 mps 739 mmHg 82%
    10:00 +2°C° 0 mm 7 mps 740 mmHg 79%
    11:00 +3°C° 0 mm 7 mps 741 mmHg 77%
    12:00 +4°C° 0 mm 7 mps 742 mmHg 75%
    13:00 +4°C° 0 mm 7 mps 743 mmHg 76%
    14:00 +4°C° 0 mm 7 mps 743 mmHg 78%
    15:00 +3°C° 0 mm 6 mps 744 mmHg 79%
    16:00 +3°C° 0 mm 6 mps 745 mmHg 81%
    17:00 +2°C° 0 mm 6 mps 745 mmHg 82%
    18:00 +2°C° 0 mm 6 mps 746 mmHg 84%
    19:00 +1°C° 0 mm 6 mps 747 mmHg 83%
    20:00 +1°C° 0 mm 5 mps 748 mmHg 83%
    21:00 +1°C° 0 mm 5 mps 749 mmHg 83%
    22:00 0°C° 0 mm 5 mps 749 mmHg 83%
    23:00 0°C° 0 mm 4 mps 750 mmHg 83%

    Tomorrow, 16 December, Saturday

    Time Temperature Precipitation Wind Pressure Humidity
    00:00 0°C° 0 mm 4 mps 750 mmHg 83%
    01:00 0°C° 0 mm 4 mps 751 mmHg 84%
    02:00 0°C° 0 mm 4 mps 751 mmHg 84%
    03:00 0°C° 0 mm 4 mps 752 mmHg 84%
    04:00 0°C° 0 mm 4 mps 752 mmHg 84%
    05:00 0°C° 0 mm 4 mps 752 mmHg 84%
    06:00 0°C° 0 mm 4 mps 753 mmHg 84%
    07:00 +1°C° 0 mm 4 mps 753 mmHg 84%
    08:00 +1°C° 0 mm 5 mps 754 mmHg 84%
    09:00 +1°C° 0 mm 5 mps 754 mmHg 84%
    10:00 +2°C° 0.1 mm 5 mps 754 mmHg 84%
    11:00 +3°C° 0.1 mm 5 mps 755 mmHg 83%
    12:00 +5°C° 0.1 mm 5 mps 755 mmHg 82%
    13:00 +5°C° 0.1 mm 5 mps 755 mmHg 83%
    14:00 +5°C° 0.1 mm 5 mps 755 mmHg 83%
    15:00 +5°C° 0.1 mm 5 mps 755 mmHg 84%
    16:00 +3°C° 0 mm 5 mps 756 mmHg 86%
    17:00 +3°C° 0 mm 4 mps 756 mmHg 87%
    18:00 +3°C° 0 mm 4 mps 756 mmHg 89%
    19:00 +3°C° 0 mm 4 mps 757 mmHg 89%
    20:00 +2°C° 0 mm 3 mps 757 mmHg 89%
    21:00 +2°C° 0 mm 3 mps 758 mmHg 89%
    22:00 +2°C° 0 mm 3 mps 758 mmHg 89%
    23:00 +2°C° 0 mm 3 mps 758 mmHg 89%

    Day after tomorrow, 17 December, Sunday

    Time Temperature Precipitation Wind Pressure Humidity
    00:00 +3°C° 0 mm 2 mps 758 mmHg 90%
    01:00 +3°C° 0 mm 2 mps 758 mmHg 90%
    02:00 +3°C° 0 mm 2 mps 758 mmHg 91%
    03:00 +3°C° 0 mm 2 mps 758 mmHg 91%
    04:00 +2°C° 0 mm 3 mps 758 mmHg 91%
    05:00 +2°C° 0 mm 3 mps 758 mmHg 91%
    06:00 +3°C° 0 mm 3 mps 758 mmHg 91%
    07:00 +3°C° 0 mm 3 mps 758 mmHg 91%
    08:00 +4°C° 0 mm 4 mps 758 mmHg 91%
    09:00 +4°C° 0 mm 4 mps 759 mmHg 91%
    10:00 +5°C° 0 mm 5 mps 758 mmHg 90%
    11:00 +5°C° 0 mm 6 mps 758 mmHg 88%
    12:00 +8°C° 0 mm 7 mps 758 mmHg 87%
    13:00 +8°C° 0.2 mm 7 mps 758 mmHg 87%
    14:00 +7°C° 0.2 mm 8 mps 757 mmHg 88%
    15:00 +7°C° 0.2 mm 8 mps 757 mmHg 89%
    16:00 +7°C° 0.2 mm 8 mps 757 mmHg 90%
    17:00 +7°C° 0.2 mm 8 mps 757 mmHg 91%
    18:00 +8°C° 0.2 mm 7 mps 757 mmHg 93%
    19:00 +9°C° 0.1 mm 7 mps 757 mmHg 94%
    20:00 +9°C° 0.1 mm 6 mps 757 mmHg 95%
    21:00 +9°C° 0.1 mm 6 mps 758 mmHg 96%
    22:00 +9°C° 0 mm 5 mps 758 mmHg 96%
    23:00 +9°C° 0 mm 5 mps 758 mmHg 96%

    18 December, Monday

    Time Temperature Precipitation Wind Pressure Humidity
    00:00 +9°C° 0 mm 5 mps 759 mmHg 96%
    01:00 +10°C° 0 mm 4 mps 759 mmHg 96%
    02:00 +10°C° 0 mm 4 mps 759 mmHg 96%
    03:00 +10°C° 0 mm 4 mps 759 mmHg 96%
    04:00 +10°C° 0 mm 3 mps 760 mmHg 96%
    05:00 +9°C° 0 mm 3 mps 760 mmHg 96%
    06:00 +9°C° 0 mm 2 mps 760 mmHg 96%
    07:00 +9°C° 0 mm 2 mps 760 mmHg 97%
    08:00 +9°C° 0 mm 2 mps 761 mmHg 97%
    09:00 +10°C° 0 mm 2 mps 761 mmHg 97%
    10:00 +10°C° 0 mm 2 mps 761 mmHg 96%
    11:00 +12°C° 0 mm 2 mps 762 mmHg 96%
    12:00 +11°C° 0 mm 3 mps 762 mmHg 95%
    13:00 +11°C° 0 mm 3 mps 762 mmHg 96%
    14:00 +11°C° 0 mm 3 mps 761 mmHg 96%
    15:00 +11°C° 0 mm 3 mps 761 mmHg 97%
    16:00 +11°C° 0 mm 3 mps 761 mmHg 97%
    17:00 +11°C° 0 mm 3 mps 761 mmHg 97%
    18:00 +11°C° 0 mm 3 mps 762 mmHg 98%
    19:00 +12°C° 0.1 mm 2 mps 762 mmHg 98%
    20:00 +12°C° 0.1 mm 2 mps 762 mmHg 98%
    21:00 +12°C° 0.1 mm 2 mps 762 mmHg 98%
    22:00 +11°C° 0 mm 3 mps 762 mmHg 98%
    23:00 +11°C° 0 mm 3 mps 762 mmHg 98%

    19 December, Tuesday

    Time Temperature Precipitation Wind Pressure Humidity
    00:00 +11°C° 0 mm 3 mps 762 mmHg 98%
    01:00 +11°C° 0 mm 3 mps 762 mmHg 98%
    02:00 +11°C° 0 mm 3 mps 763 mmHg 98%
    03:00 +11°C° 0 mm 3 mps 763 mmHg 98%
    04:00 +11°C° 0 mm 3 mps 763 mmHg 98%
    05:00 +11°C° 0 mm 3 mps 763 mmHg 97%
    06:00 +11°C° 0 mm 3 mps 763 mmHg 97%
    07:00 +11°C° 0 mm 3 mps 763 mmHg 97%
    08:00 +11°C° 0 mm 3 mps 764 mmHg 97%
    09:00 +11°C° 0 mm 3 mps 764 mmHg 97%
    10:00 +12°C° 0 mm 3 mps 764 mmHg 95%
    11:00 +12°C° 0 mm 3 mps 764 mmHg 94%
    12:00 +12°C° 0 mm 3 mps 764 mmHg 92%
    13:00 +12°C° 0 mm 4 mps 764 mmHg 93%
    14:00 +12°C° 0 mm 4 mps 764 mmHg 93%
    15:00 +12°C° 0 mm 4 mps 764 mmHg 93%
    16:00 +12°C° 0 mm 4 mps 764 mmHg 94%
    17:00 +12°C° 0 mm 4 mps 765 mmHg 95%
    18:00 +12°C° 0 mm 4 mps 765 mmHg 96%
    19:00 +12°C° 0 mm 4 mps 765 mmHg 96%
    20:00 +11°C° 0 mm 4 mps 765 mmHg 95%
    21:00 +11°C° 0 mm 4 mps 766 mmHg 95%
    22:00 +11°C° 0 mm 4 mps 766 mmHg 95%
    23:00 +11°C° 0 mm 4 mps 766 mmHg 94%

    20 December, Wednesday

    Time Temperature Precipitation Wind Pressure Humidity
    00:00 +10°C° 0 mm 4 mps 766 mmHg 94%
    01:00 +10°C° 0 mm 4 mps 766 mmHg 94%
    02:00 +10°C° 0 mm 4 mps 766 mmHg 95%
    03:00 +10°C° 0 mm 3 mps 766 mmHg 95%
    04:00 +10°C° 0 mm 3 mps 766 mmHg 96%
    05:00 +10°C° 0 mm 3 mps 766 mmHg 96%
    06:00 +10°C° 0 mm 3 mps 766 mmHg 96%
    07:00 +10°C° 0 mm 3 mps 767 mmHg 96%
    08:00 +10°C° 0 mm 3 mps 767 mmHg 96%
    09:00 +10°C° 0 mm 3 mps 767 mmHg 96%
    10:00 +10°C° 0 mm 4 mps 767 mmHg 94%
    11:00 +11°C° 0 mm 4 mps 767 mmHg 92%
    12:00 +12°C° 0 mm 4 mps 767 mmHg 90%
    13:00 +11°C° 0 mm 4 mps 767 mmHg 91%
    14:00 +11°C° 0 mm 4 mps 767 mmHg 91%
    15:00 +11°C° 0 mm 4 mps 767 mmHg 92%
    16:00 +11°C° 0 mm 4 mps 767 mmHg 93%
    17:00 +10°C° 0 mm 4 mps 767 mmHg 93%
    18:00 +10°C° 0 mm 4 mps 767 mmHg 94%
    19:00 +10°C° 0 mm 4 mps 767 mmHg 94%
    20:00 +10°C° 0 mm 4 mps 767 mmHg 94%
    21:00 +8°C° 0 mm 4 mps 767 mmHg 94%
    22:00 +8°C° 0 mm 5 mps 767 mmHg 93%
    23:00 +9°C° 0 mm 5 mps 767 mmHg 93%
    Show more